Fort Knox, KY

6:56 PM EDT on May 23, 2017 (GMT -0400)
Godman Army Air Field

Weather History for KFTK - February, 2013

Change the Weather History Date:

Wednesday, February 20, 2013

  Actual Average Record
Temperature  
Mean Temperature 23 °F -  
Max Temperature 31 °F 46 °F 73 °F (2016)
Min Temperature 15 °F 28 °F -13 °F (2015)
Degree Days  
Heating Degree Days 42    
Moisture  
Dew Point 13 °F    
Average Humidity 62    
Maximum Humidity 82    
Minimum Humidity 47    
Precipitation  
Precipitation 0.00 in - - ()
Sea Level Pressure  
Sea Level Pressure 30.29 in    
Wind  
Wind Speed 7 mph (NW)    
Max Wind Speed 12 mph    
Max Gust Speed 21 mph    
Visibility 10 miles    
Events      
Averages and records for this station are not official NWS values.
T = Trace of Precipitation, MM = Missing Value Source: NWS Daily Summary

Daily Weather History Graph

Daily Weather History Graph

Search for Another Location

Airport or City:

Trip Planner

Search our weather history database for the weather conditions in past years. The results will help you decide how hot, cold, wet, or windy it might be!

Date:

Astronomy

Feb. 20, 2013 Rise Set
Actual Time 7:27 AM EST 6:28 PM EST
Civil Twilight 7:00 AM EST 6:55 PM EST
Nautical Twilight 6:29 AM EST 7:25 PM EST
Astronomical Twilight 5:59 AM EST 7:56 PM EST
Moon 1:52 PM EST (2/20) 3:43 AM EST (2/20)
Length of Visible Light 11h 54m
Length of Day
11h 01m
Waxing Gibbous, 76% of the Moon is Illuminated
Feb 20
Waxing Gibbous
Feb 25
Full
Mar 4
Last Quarter
Mar 11
New
Mar 19
First Quarter

Hourly Weather History & Observations

Time (EST) Temp. Windchill Dew Point Humidity Pressure Visibility Wind Dir Wind Speed Gust Speed Precip Events Conditions
12:55 AM 21.9 °F 10.4 °F 12.6 °F 67% 30.22 in 10.0 mi WNW 11.5 mph - N/A   Clear
1:55 AM 22.1 °F 10.6 °F 12.0 °F 65% 30.23 in 10.0 mi WNW 11.5 mph 20.7 mph N/A   Clear
2:55 AM 21.6 °F 10.6 °F 12.2 °F 67% 30.24 in 10.0 mi West 10.4 mph 19.6 mph N/A   Clear
3:55 AM 20.1 °F 10.3 °F 12.2 °F 71% 30.25 in 10.0 mi West 8.1 mph - N/A   Clear
4:55 AM 18.1 °F 12.9 °F 11.5 °F 75% 30.25 in 10.0 mi WSW 3.5 mph - N/A   Clear
5:55 AM 18.5 °F - 12.0 °F 76% 30.27 in 10.0 mi Calm Calm - N/A   Clear
6:55 AM 16.9 °F 11.5 °F 10.9 °F 77% 30.28 in 10.0 mi West 3.5 mph - N/A   Clear
7:55 AM 15.8 °F 8.6 °F 11.1 °F 82% 30.30 in 10.0 mi West 4.6 mph - N/A   Clear
8:55 AM 21.6 °F 12.1 °F 13.8 °F 72% 30.31 in 10.0 mi WNW 8.1 mph - N/A   Clear
9:55 AM 24.1 °F 18.2 °F 12.9 °F 62% 30.32 in 10.0 mi West 4.6 mph - N/A   Clear
10:55 AM 26.1 °F 16.2 °F 12.0 °F 55% 30.33 in 10.0 mi WNW 10.4 mph - N/A   Clear
11:55 AM 28.2 °F 19.5 °F 12.6 °F 52% 30.35 in 10.0 mi NW 9.2 mph - N/A   Clear
12:55 PM 29.3 °F 22.3 °F 12.7 °F 50% 30.33 in 10.0 mi Variable 6.9 mph - N/A   Clear
1:55 PM 30.4 °F 25.6 °F 12.6 °F 48% 30.30 in 10.0 mi Variable 4.6 mph - N/A   Clear
2:55 PM 31.1 °F 24.5 °F 13.6 °F 48% 30.31 in 10.0 mi NNW 6.9 mph - N/A   Overcast
3:55 PM 30.9 °F 22.8 °F 12.7 °F 47% 30.30 in 10.0 mi NNW 9.2 mph - N/A   Overcast
4:55 PM 31.3 °F 27.9 °F 13.3 °F 47% 30.30 in 10.0 mi NNW 3.5 mph - N/A   Overcast
5:55 PM 30.2 °F 24.3 °F 14.9 °F 53% 30.30 in 10.0 mi NNW 5.8 mph - N/A   Overcast
6:55 PM 29.1 °F 23.0 °F 14.0 °F 53% 30.28 in 10.0 mi North 5.8 mph - N/A   Overcast
7:55 PM 28.4 °F 23.3 °F 14.7 °F 57% 30.30 in 10.0 mi NNW 4.6 mph - N/A   Overcast
8:55 PM 25.7 °F 20.1 °F 15.3 °F 65% 30.30 in 10.0 mi North 4.6 mph - N/A   Overcast
9:55 PM 25.2 °F - 15.4 °F 67% 30.30 in 10.0 mi Calm Calm - N/A   Overcast
10:55 PM 24.3 °F 18.4 °F 13.5 °F 63% 30.30 in 10.0 mi NNE 4.6 mph - N/A   Mostly Cloudy
11:55 PM 21.7 °F 17.0 °F 16.7 °F 81% 30.30 in 10.0 mi North 3.5 mph - N/A   Scattered Clouds